Location: Newark
(42.9277°N, 71.8621°W)
Time: 19:12:53
(UTC+00:00)

Transit 4A - Pass Details

Date: 12 May 2021
Orbit: 872 x 973 km, 66.8° (Epoch: 15 June)

Event Time Altitude Azimuth Distance (km) Brightness Sun altitude
Rises 07:51:11 0° 330° (NNW) 3,492 11.1 -15.2°
Reaches altitude 10° 07:53:41 10° 331° (NNW) 2,541 10.4 -14.9°
Maximum altitude 07:59:33 78° 58° (ENE) 897 7.9 -14.1°
Drops below altitude 10° 08:05:22 10° 145° (SE) 2,514 10.1 -13.3°
Sets 08:07:50 0° 147° (SSE) 3,452 10.8 -13.0°
